Volver al catálogo

HAMSAT

ActivoRadioaficionadoSSO
NORAD 28650·PAYLOAD·🇮🇳 India

Lanzado May 5, 2005 desde Satish Dhawan Space Centre

Loading…

Próximos Pases (próximas 24 horas)

TLE

ActualizadoSource: Space-Track

Época: Sep 14, 2026, 01:10 UTC

1 28650U 05017B   26257.04879504  .00003237  00000-0  20066-3 0  9995
2 28650  97.9871 283.9166 0020471  95.1059 265.2507 15.10356877160177

Sigue HAMSAT en tiempo real con AllMySat

Download on the App Store